Back to catalog

STARLINK-1227

AliveCommunicationsVLEO
NORAD 45230·PAYLOAD·🇺🇸 United States

Launched Feb 17, 2020 from Cape Canaveral Space Force Station

Loading…

Next Passes (next 24 hours)

TLE

FreshSource: CelesTrak SupGP

Epoch: Sep 14, 2026, 14:29 UTC

1 45230C 20012BE  26257.60395833  .00091780  00000+0  13345-2 0  2577
2 45230  53.1467 182.1573 0003654 121.8065 209.8850 15.55100441    19

Track STARLINK-1227 in real time with AllMySat

Download on the App Store